Time,TemperatureF,DewpointF,PressureIn,WindDirection,WindDirectionDegrees,WindSpeedMPH,WindSpeedGustMPH,Humidity,HourlyPrecipIn,Conditions,Clouds,dailyrainin,SoftwareType,DateUTC
2013-02-21 00:01:00,16.2,10.0,30.44,SE,124,0.0,-999.0,75,-99.99,,,0.01,weatherlink.com 1.10,2013-02-21 06:01:00,
2013-02-21 00:06:00,16.1,9.6,30.44,SE,124,0.0,0.0,75,0.00,,,0.01,Wunderground v.1.15,2013-02-21 06:06:00,
2013-02-21 00:12:00,15.8,9.6,30.44,SE,124,0.0,0.0,76,0.00,,,0.01,Wunderground v.1.15,2013-02-21 06:12:00,
2013-02-21 00:18:00,15.6,9.7,30.44,SE,124,0.0,0.0,77,0.00,,,0.01,Wunderground v.1.15,2013-02-21 06:18:00,
2013-02-21 00:24:00,15.4,9.8,30.44,SE,124,0.0,0.0,78,0.00,,,0.01,Wunderground v.1.15,2013-02-21 06:24:00,
2013-02-21 00:29:00,15.1,9.5,30.45,SE,124,0.0,0.0,78,0.00,,,0.01,Wunderground v.1.15,2013-02-21 06:29:00,
2013-02-21 00:35:00,14.9,9.6,30.45,SE,124,0.0,0.0,79,0.00,,,0.01,Wunderground v.1.15,2013-02-21 06:35:00,
2013-02-21 00:40:00,14.8,9.5,30.45,SE,124,0.0,0.0,79,0.00,,,0.01,Wunderground v.1.15,2013-02-21 06:40:00,
2013-02-21 00:46:00,14.8,9.5,30.45,SE,124,0.0,0.0,79,0.00,,,0.01,Wunderground v.1.15,2013-02-21 06:46:00,
2013-02-21 00:52:00,14.8,9.5,30.44,SE,124,0.0,0.0,79,0.00,,,0.01,Wunderground v.1.15,2013-02-21 06:52:00,
2013-02-21 00:58:00,14.9,9.6,30.44,SE,146,0.0,1.0,79,0.00,,,0.01,Wunderground v.1.15,2013-02-21 06:58:00,
2013-02-21 01:04:00,15.0,9.4,30.44,SE,146,0.0,0.0,78,0.00,,,0.00,Wunderground v.1.15,2013-02-21 07:04:00,
2013-02-21 01:09:00,15.1,9.0,30.44,SE,146,0.0,-999.0,77,-99.99,,,0.00,weatherlink.com 1.10,2013-02-21 07:09:00,
2013-02-21 01:14:00,15.2,9.3,30.44,SSE,147,0.0,0.0,77,0.00,,,0.00,Wunderground v.1.15,2013-02-21 07:14:00,
2013-02-21 01:20:00,15.3,9.4,30.44,SSE,147,0.0,0.0,77,0.00,,,0.00,Wunderground v.1.15,2013-02-21 07:20:00,
2013-02-21 01:26:00,15.3,9.4,30.44,SW,215,0.0,1.0,77,0.00,,,0.00,Wunderground v.1.15,2013-02-21 07:26:00,
2013-02-21 01:32:00,15.3,9.4,30.44,South,184,3.0,3.0,77,0.00,,,0.00,Wunderground v.1.15,2013-02-21 07:32:00,
2013-02-21 01:38:00,15.3,9.4,30.45,SW,227,0.0,3.0,77,0.00,,,0.00,Wunderground v.1.15,2013-02-21 07:38:00,
2013-02-21 01:44:00,15.3,9.1,30.45,SE,143,0.0,1.0,76,0.00,,,0.00,Wunderground v.1.15,2013-02-21 07:44:00,
2013-02-21 01:49:00,15.3,9.1,30.45,SE,143,0.0,0.0,76,0.00,,,0.00,Wunderground v.1.15,2013-02-21 07:49:00,
2013-02-21 01:55:00,15.2,9.0,30.45,SSW,210,1.0,1.0,76,0.00,,,0.00,Wunderground v.1.15,2013-02-21 07:55:00,
2013-02-21 02:00:00,15.2,9.3,30.45,SW,226,1.0,1.0,77,0.00,,,0.00,Wunderground v.1.15,2013-02-21 08:00:00,
2013-02-21 02:05:00,15.1,9.2,30.45,SSW,211,0.0,2.0,77,0.00,,,0.00,Wunderground v.1.15,2013-02-21 08:05:00,
2013-02-21 02:11:00,15.0,9.1,30.45,SSW,210,1.0,1.0,77,0.00,,,0.00,Wunderground v.1.15,2013-02-21 08:11:00,
2013-02-21 02:16:00,14.9,9.0,30.45,SSW,210,0.0,2.0,77,0.00,,,0.00,Wunderground v.1.15,2013-02-21 08:16:00,
2013-02-21 02:21:00,14.9,9.0,30.45,South,189,0.0,1.0,77,0.00,,,0.00,Wunderground v.1.15,2013-02-21 08:21:00,
2013-02-21 02:26:00,14.8,8.9,30.44,SSW,197,0.0,2.0,77,0.00,,,0.00,Wunderground v.1.15,2013-02-21 08:26:00,
2013-02-21 02:31:00,14.7,8.8,30.44,SSW,201,2.0,2.0,77,0.00,,,0.00,Wunderground v.1.15,2013-02-21 08:31:00,
2013-02-21 02:36:00,14.6,8.7,30.44,SSW,201,0.0,2.0,77,0.00,,,0.00,Wunderground v.1.15,2013-02-21 08:36:00,
2013-02-21 02:41:00,14.5,8.9,30.44,SSW,201,1.0,1.0,78,0.00,,,0.00,Wunderground v.1.15,2013-02-21 08:41:00,
2013-02-21 02:46:00,14.4,8.5,30.45,SSW,210,0.0,1.0,77,0.00,,,0.00,Wunderground v.1.15,2013-02-21 08:46:00,
2013-02-21 02:51:00,14.3,8.7,30.45,SSW,210,0.0,1.0,78,0.00,,,0.00,Wunderground v.1.15,2013-02-21 08:51:00,
2013-02-21 02:56:00,14.2,8.6,30.45,SW,231,1.0,2.0,78,0.00,,,0.00,Wunderground v.1.15,2013-02-21 08:56:00,
2013-02-21 03:01:00,14.1,8.5,30.44,SSW,195,0.0,2.0,78,0.00,,,0.00,Wunderground v.1.15,2013-02-21 09:01:00,
2013-02-21 03:06:00,14.0,8.4,30.44,SSW,199,0.0,2.0,78,0.00,,,0.00,Wunderground v.1.15,2013-02-21 09:06:00,
2013-02-21 03:11:00,13.9,8.3,30.45,SW,222,1.0,2.0,78,0.00,,,0.00,Wunderground v.1.15,2013-02-21 09:11:00,
2013-02-21 03:16:00,13.8,8.2,30.45,WSW,239,0.0,2.0,78,0.00,,,0.00,Wunderground v.1.15,2013-02-21 09:16:00,
2013-02-21 03:21:00,13.7,8.1,30.45,SSW,199,1.0,1.0,78,0.00,,,0.00,Wunderground v.1.15,2013-02-21 09:21:00,
2013-02-21 03:26:00,13.6,8.3,30.46,SSW,209,0.0,3.0,79,0.00,,,0.00,Wunderground v.1.15,2013-02-21 09:26:00,
2013-02-21 03:31:00,13.5,8.2,30.46,SSW,209,0.0,1.0,79,0.00,,,0.00,Wunderground v.1.15,2013-02-21 09:31:00,
2013-02-21 03:36:00,13.5,8.2,30.46,SSW,205,3.0,3.0,79,0.00,,,0.00,Wunderground v.1.15,2013-02-21 09:36:00,
2013-02-21 03:41:00,13.4,8.1,30.46,SW,218,1.0,3.0,79,0.00,,,0.00,Wunderground v.1.15,2013-02-21 09:41:00,
2013-02-21 03:46:00,13.4,8.1,30.47,SW,226,1.0,3.0,79,0.00,,,0.00,Wunderground v.1.15,2013-02-21 09:46:00,
2013-02-21 03:51:00,13.4,8.4,30.46,SW,225,0.0,2.0,80,0.00,,,0.00,Wunderground v.1.15,2013-02-21 09:51:00,
2013-02-21 03:56:00,13.4,8.4,30.47,SSW,211,2.0,2.0,80,0.00,,,0.00,Wunderground v.1.15,2013-02-21 09:56:00,
2013-02-21 04:01:00,13.4,8.4,30.47,SW,222,0.0,1.0,80,0.00,,,0.00,Wunderground v.1.15,2013-02-21 10:01:00,
2013-02-21 04:06:00,13.4,8.1,30.47,South,183,1.0,3.0,79,0.00,,,0.00,Wunderground v.1.15,2013-02-21 10:06:00,
2013-02-21 04:11:00,13.4,8.4,30.47,SW,230,0.0,2.0,80,0.00,,,0.00,Wunderground v.1.15,2013-02-21 10:11:00,
2013-02-21 04:16:00,13.4,8.4,30.47,WSW,239,0.0,3.0,80,0.00,,,0.00,Wunderground v.1.15,2013-02-21 10:16:00,
2013-02-21 04:21:00,13.4,8.1,30.47,SSE,147,0.0,3.0,79,0.00,,,0.00,Wunderground v.1.15,2013-02-21 10:21:00,
2013-02-21 04:26:00,13.4,8.4,30.48,SW,230,0.0,3.0,80,0.00,,,0.00,Wunderground v.1.15,2013-02-21 10:26:00,
2013-02-21 04:31:00,13.4,8.4,30.48,SW,230,0.0,1.0,80,0.00,,,0.00,Wunderground v.1.15,2013-02-21 10:31:00,
2013-02-21 04:37:00,13.4,8.4,30.48,SW,230,0.0,1.0,80,0.00,,,0.00,Wunderground v.1.15,2013-02-21 10:37:00,
2013-02-21 04:42:00,13.4,8.4,30.48,SW,230,0.0,1.0,80,0.00,,,0.00,Wunderground v.1.15,2013-02-21 10:42:00,
2013-02-21 04:47:00,13.4,8.7,30.47,SW,230,0.0,1.0,81,0.00,,,0.00,Wunderground v.1.15,2013-02-21 10:47:00,
2013-02-21 04:52:00,13.4,8.7,30.47,SW,230,0.0,1.0,81,0.00,,,0.00,Wunderground v.1.15,2013-02-21 10:52:00,
2013-02-21 04:57:00,13.3,8.3,30.47,SSW,209,1.0,2.0,80,0.00,,,0.00,Wunderground v.1.15,2013-02-21 10:57:00,
2013-02-21 05:02:00,13.2,8.5,30.47,South,182,0.0,1.0,81,0.00,,,0.00,Wunderground v.1.15,2013-02-21 11:02:00,
2013-02-21 05:07:00,13.0,8.0,30.47,South,182,1.0,2.0,80,0.00,,,0.00,Wunderground v.1.15,2013-02-21 11:07:00,
2013-02-21 05:12:00,12.9,7.9,30.47,SW,216,0.0,3.0,80,0.00,,,0.00,Wunderground v.1.15,2013-02-21 11:12:00,
2013-02-21 05:17:00,12.8,8.1,30.46,SW,226,1.0,3.0,81,0.00,,,0.00,Wunderground v.1.15,2013-02-21 11:17:00,
2013-02-21 05:22:00,12.7,8.0,30.46,SW,216,1.0,2.0,81,0.00,,,0.00,Wunderground v.1.15,2013-02-21 11:22:00,
2013-02-21 05:27:00,12.6,7.9,30.45,SSE,166,0.0,3.0,81,0.00,,,0.00,Wunderground v.1.15,2013-02-21 11:27:00,
2013-02-21 05:32:00,12.5,7.8,30.45,SSW,211,2.0,3.0,81,0.00,,,0.00,Wunderground v.1.15,2013-02-21 11:32:00,
2013-02-21 05:37:00,12.5,7.8,30.44,SSW,212,1.0,3.0,81,0.00,,,0.00,Wunderground v.1.15,2013-02-21 11:37:00,
2013-02-21 05:42:00,12.4,7.7,30.43,SW,221,1.0,3.0,81,0.00,,,0.00,Wunderground v.1.15,2013-02-21 11:42:00,
2013-02-21 05:47:00,12.3,7.3,30.42,SW,220,0.0,4.0,80,0.00,,,0.00,Wunderground v.1.15,2013-02-21 11:47:00,
2013-02-21 05:52:00,12.1,7.1,30.41,SSW,199,1.0,3.0,80,0.00,,,0.00,Wunderground v.1.15,2013-02-21 11:52:00,
2013-02-21 05:57:00,11.9,6.9,30.40,WSW,238,1.0,3.0,80,0.00,,,0.00,Wunderground v.1.15,2013-02-21 11:57:00,
2013-02-21 06:02:00,11.8,6.8,30.39,SW,219,2.0,4.0,80,0.00,,,0.00,Wunderground v.1.15,2013-02-21 12:02:00,
2013-02-21 06:07:00,11.7,6.7,30.39,SSW,199,1.0,4.0,80,0.00,,,0.00,Wunderground v.1.15,2013-02-21 12:07:00,
2013-02-21 06:12:00,11.6,6.6,30.39,SSW,211,1.0,3.0,80,0.00,,,0.00,Wunderground v.1.15,2013-02-21 12:12:00,
2013-02-21 06:18:00,11.5,6.8,30.41,WSW,258,0.0,3.0,81,0.00,,,0.00,Wunderground v.1.15,2013-02-21 12:18:00,
2013-02-21 06:23:00,11.4,6.7,30.43,SSW,195,0.0,3.0,81,0.00,,,0.00,Wunderground v.1.15,2013-02-21 12:23:00,
2013-02-21 06:28:00,11.4,6.7,30.46,SW,222,0.0,3.0,81,0.00,,,0.00,Wunderground v.1.15,2013-02-21 12:28:00,
2013-02-21 06:33:00,11.4,6.7,30.47,WSW,244,0.0,1.0,81,0.00,,,0.00,Wunderground v.1.15,2013-02-21 12:33:00,
2013-02-21 06:38:00,11.4,6.7,30.47,WSW,237,0.0,1.0,81,0.00,,,0.00,Wunderground v.1.15,2013-02-21 12:38:00,
2013-02-21 06:43:00,11.4,6.7,30.45,SW,225,0.0,2.0,81,0.00,,,0.00,Wunderground v.1.15,2013-02-21 12:43:00,
2013-02-21 06:48:00,11.4,6.7,30.45,SW,225,0.0,2.0,81,0.00,,,0.00,Wunderground v.1.15,2013-02-21 12:48:00,
2013-02-21 06:53:00,11.3,6.6,30.45,SW,225,0.0,1.0,81,0.00,,,0.00,Wunderground v.1.15,2013-02-21 12:53:00,
2013-02-21 06:58:00,11.2,6.5,30.45,SW,225,0.0,1.0,81,0.00,,,0.00,Wunderground v.1.15,2013-02-21 12:58:00,
2013-02-21 07:03:00,11.2,6.8,30.45,SW,225,1.0,1.0,82,0.00,,,0.00,Wunderground v.1.15,2013-02-21 13:03:00,
2013-02-21 07:08:00,11.2,6.5,30.46,SW,225,0.0,1.0,81,0.00,,,0.00,Wunderground v.1.15,2013-02-21 13:08:00,
2013-02-21 07:13:00,11.2,6.5,30.47,SW,225,0.0,1.0,81,0.00,,,0.00,Wunderground v.1.15,2013-02-21 13:13:00,
2013-02-21 07:18:00,11.2,6.8,30.47,SW,225,0.0,1.0,82,0.00,,,0.00,Wunderground v.1.15,2013-02-21 13:18:00,
2013-02-21 07:23:00,11.4,7.0,30.47,SW,225,0.0,1.0,82,0.00,,,0.00,Wunderground v.1.15,2013-02-21 13:23:00,
2013-02-21 07:28:00,11.5,7.3,30.47,SW,225,0.0,1.0,83,0.00,,,0.00,Wunderground v.1.15,2013-02-21 13:28:00,
2013-02-21 07:33:00,11.7,7.5,30.47,SSW,209,2.0,2.0,83,0.00,,,0.00,Wunderground v.1.15,2013-02-21 13:33:00,
2013-02-21 07:38:00,11.9,7.5,30.46,SSW,201,1.0,3.0,82,0.00,,,0.00,Wunderground v.1.15,2013-02-21 13:38:00,
2013-02-21 07:43:00,12.1,7.7,30.45,SSW,204,1.0,4.0,82,0.00,,,0.00,Wunderground v.1.15,2013-02-21 13:43:00,
2013-02-21 07:48:00,12.3,7.9,30.46,SW,229,1.0,4.0,82,0.00,,,0.00,Wunderground v.1.15,2013-02-21 13:48:00,
2013-02-21 07:53:00,12.4,8.0,30.46,SSW,212,1.0,2.0,82,0.00,,,0.00,Wunderground v.1.15,2013-02-21 13:53:00,
2013-02-21 07:58:00,12.7,8.2,30.47,SW,228,0.0,3.0,82,0.00,,,0.00,Wunderground v.1.15,2013-02-21 13:58:00,
2013-02-21 08:03:00,12.8,8.3,30.48,SW,225,1.0,2.0,82,0.00,,,0.00,Wunderground v.1.15,2013-02-21 14:03:00,
2013-02-21 08:08:00,13.0,8.5,30.47,North,356,1.0,3.0,82,0.00,,,0.00,Wunderground v.1.15,2013-02-21 14:08:00,
2013-02-21 08:13:00,13.3,8.8,30.48,SSW,203,0.0,2.0,82,0.00,,,0.00,Wunderground v.1.15,2013-02-21 14:13:00,
2013-02-21 08:18:00,13.5,9.0,30.48,SW,223,0.0,3.0,82,0.00,,,0.00,Wunderground v.1.15,2013-02-21 14:18:00,
2013-02-21 08:23:00,13.6,9.1,30.48,SW,228,0.0,2.0,82,0.00,,,0.00,Wunderground v.1.15,2013-02-21 14:23:00,
2013-02-21 08:28:00,13.9,9.7,30.48,SSW,211,1.0,3.0,83,0.00,,,0.00,Wunderground v.1.15,2013-02-21 14:28:00,
2013-02-21 08:33:00,14.1,9.6,30.47,SW,220,2.0,3.0,82,0.00,,,0.00,Wunderground v.1.15,2013-02-21 14:33:00,
2013-02-21 08:38:00,14.3,9.8,30.47,SW,226,0.0,4.0,82,0.00,,,0.00,Wunderground v.1.15,2013-02-21 14:38:00,
2013-02-21 08:43:00,14.5,10.0,30.47,SW,224,2.0,3.0,82,0.00,,,0.00,Wunderground v.1.15,2013-02-21 14:43:00,
2013-02-21 08:48:00,14.7,10.2,30.46,South,183,1.0,3.0,82,0.00,,,0.00,Wunderground v.1.15,2013-02-21 14:48:00,
2013-02-21 08:53:00,14.8,10.0,30.46,SW,235,1.0,5.0,81,0.00,,,0.00,Wunderground v.1.15,2013-02-21 14:53:00,
2013-02-21 08:59:00,14.9,10.4,30.46,WSW,255,1.0,5.0,82,0.00,,,0.00,Wunderground v.1.15,2013-02-21 14:59:00,
2013-02-21 09:03:00,15.2,10.7,30.46,SW,220,0.0,3.0,82,0.00,,,0.00,Wunderground v.1.15,2013-02-21 15:03:00,
2013-02-21 09:08:00,15.5,11.0,30.45,SSW,206,0.0,3.0,82,0.00,,,0.00,Wunderground v.1.15,2013-02-21 15:08:00,
2013-02-21 09:13:00,15.7,10.9,30.45,SSE,149,0.0,2.0,81,0.00,,,0.00,Wunderground v.1.15,2013-02-21 15:13:00,
2013-02-21 09:18:00,15.9,10.8,30.45,SSW,203,0.0,4.0,80,0.00,,,0.00,Wunderground v.1.15,2013-02-21 15:18:00,
2013-02-21 09:23:00,16.1,11.3,30.45,WSW,242,0.0,3.0,81,0.00,,,0.00,Wunderground v.1.15,2013-02-21 15:23:00,
2013-02-21 09:28:00,16.3,11.2,30.46,SW,214,0.0,3.0,80,0.00,,,0.00,Wunderground v.1.15,2013-02-21 15:28:00,
2013-02-21 09:33:00,16.3,11.2,30.46,SW,227,2.0,3.0,80,0.00,,,0.00,Wunderground v.1.15,2013-02-21 15:33:00,
2013-02-21 09:38:00,16.5,11.4,30.45,SW,223,0.0,3.0,80,0.00,,,0.00,Wunderground v.1.15,2013-02-21 15:38:00,
2013-02-21 09:44:00,16.4,11.3,30.46,NW,314,1.0,2.0,80,0.00,,,0.00,Wunderground v.1.15,2013-02-21 15:44:00,
2013-02-21 09:49:00,16.6,11.5,30.46,West,268,1.0,3.0,80,0.00,,,0.00,Wunderground v.1.15,2013-02-21 15:49:00,
2013-02-21 09:54:00,16.8,11.7,30.45,SSW,200,0.0,3.0,80,0.00,,,0.00,Wunderground v.1.15,2013-02-21 15:54:00,
2013-02-21 09:59:00,17.1,12.0,30.45,SSW,197,1.0,3.0,80,0.00,,,0.00,Wunderground v.1.15,2013-02-21 15:59:00,
2013-02-21 10:04:00,17.1,12.0,30.46,SW,226,1.0,5.0,80,0.00,,,0.00,Wunderground v.1.15,2013-02-21 16:04:00,
2013-02-21 10:09:00,17.2,12.1,30.46,SW,217,0.0,5.0,80,0.00,,,0.00,Wunderground v.1.15,2013-02-21 16:09:00,
2013-02-21 10:14:00,17.4,12.3,30.46,SW,222,1.0,4.0,80,0.00,,,0.00,Wunderground v.1.15,2013-02-21 16:14:00,
2013-02-21 10:19:00,17.5,12.4,30.46,SSW,211,2.0,4.0,80,0.00,,,0.00,Wunderground v.1.15,2013-02-21 16:19:00,
2013-02-21 10:24:00,17.7,12.6,30.46,WSW,251,1.0,3.0,80,0.00,,,0.00,Wunderground v.1.15,2013-02-21 16:24:00,
2013-02-21 10:29:00,17.9,12.8,30.46,SW,235,2.0,3.0,80,0.00,,,0.00,Wunderground v.1.15,2013-02-21 16:29:00,
2013-02-21 10:34:00,18.1,13.0,30.46,SW,222,0.0,3.0,80,0.00,,,0.00,Wunderground v.1.15,2013-02-21 16:34:00,
2013-02-21 10:39:00,18.4,13.3,30.45,SW,235,1.0,3.0,80,0.00,,,0.00,Wunderground v.1.15,2013-02-21 16:39:00,
2013-02-21 10:44:00,18.6,13.7,30.45,WSW,245,2.0,4.0,81,0.00,,,0.00,Wunderground v.1.15,2013-02-21 16:44:00,
2013-02-21 10:49:00,18.8,13.4,30.45,West,261,0.0,4.0,79,0.00,,,0.00,Wunderground v.1.15,2013-02-21 16:49:00,
2013-02-21 10:54:00,18.9,13.7,30.46,WSW,244,1.0,3.0,80,0.00,,,0.00,Wunderground v.1.15,2013-02-21 16:54:00,
2013-02-21 10:59:00,19.1,14.2,30.46,WSW,241,1.0,4.0,81,0.00,,,0.00,Wunderground v.1.15,2013-02-21 16:59:00,
2013-02-21 11:04:00,19.4,13.9,30.45,West,259,1.0,3.0,79,0.00,,,0.00,Wunderground v.1.15,2013-02-21 17:04:00,
2013-02-21 11:09:00,19.5,14.3,30.45,West,262,2.0,5.0,80,0.00,,,0.00,Wunderground v.1.15,2013-02-21 17:09:00,
2013-02-21 11:14:00,19.7,14.2,30.45,WSW,247,1.0,4.0,79,0.00,,,0.00,Wunderground v.1.15,2013-02-21 17:14:00,
2013-02-21 11:19:00,19.7,14.2,30.44,WSW,249,1.0,4.0,79,0.00,,,0.00,Wunderground v.1.15,2013-02-21 17:19:00,
2013-02-21 11:24:00,19.8,14.3,30.43,SSW,200,2.0,4.0,79,0.00,,,0.00,Wunderground v.1.15,2013-02-21 17:24:00,
2013-02-21 11:29:00,20.0,14.8,30.42,SSW,206,2.0,2.0,80,0.00,,,0.00,Wunderground v.1.15,2013-02-21 17:29:00,
2013-02-21 11:34:00,20.2,14.7,30.43,WSW,245,0.0,3.0,79,0.00,,,0.00,Wunderground v.1.15,2013-02-21 17:34:00,
2013-02-21 11:39:00,20.3,14.5,30.42,SSW,210,1.0,2.0,78,0.00,,,0.00,Wunderground v.1.15,2013-02-21 17:39:00,
2013-02-21 11:44:00,20.5,15.0,30.42,SSW,211,2.0,4.0,79,0.00,,,0.00,Wunderground v.1.15,2013-02-21 17:44:00,
2013-02-21 11:49:00,20.5,15.0,30.41,SSW,207,2.0,2.0,79,0.00,,,0.00,Wunderground v.1.15,2013-02-21 17:49:00,
2013-02-21 11:54:00,20.5,15.3,30.40,West,269,2.0,5.0,80,0.00,,,0.00,Wunderground v.1.15,2013-02-21 17:54:00,
2013-02-21 11:59:00,20.3,15.1,30.39,SW,217,1.0,2.0,80,0.00,,,0.00,Wunderground v.1.15,2013-02-21 17:59:00,
2013-02-21 12:04:00,20.4,15.8,30.39,SSW,211,1.0,3.0,82,0.00,,,0.00,Wunderground v.1.15,2013-02-21 18:04:00,
2013-02-21 12:09:00,20.6,16.3,30.40,SSE,161,1.0,1.0,83,0.00,,,0.00,Wunderground v.1.15,2013-02-21 18:09:00,
2013-02-21 12:14:00,20.8,16.5,30.40,WSW,254,0.0,5.0,83,0.00,,,0.00,Wunderground v.1.15,2013-02-21 18:14:00,
2013-02-21 12:19:00,20.8,16.2,30.39,SSW,193,0.0,1.0,82,0.00,,,0.00,Wunderground v.1.15,2013-02-21 18:19:00,
2013-02-21 12:24:00,20.9,16.5,30.39,South,171,0.0,3.0,83,0.00,,,0.00,Wunderground v.1.15,2013-02-21 18:24:00,
2013-02-21 12:29:00,21.1,16.5,30.39,SSW,194,1.0,3.0,82,0.00,,,0.00,Wunderground v.1.15,2013-02-21 18:29:00,
2013-02-21 12:35:00,21.1,16.5,30.39,SW,218,0.0,3.0,82,0.00,,,0.00,Wunderground v.1.15,2013-02-21 18:35:00,
2013-02-21 12:40:00,21.2,16.8,30.38,SSW,205,2.0,2.0,83,0.00,,,0.00,Wunderground v.1.15,2013-02-21 18:40:00,
2013-02-21 12:45:00,21.3,16.9,30.38,SSW,193,0.0,3.0,83,0.00,,,0.00,Wunderground v.1.15,2013-02-21 18:45:00,
2013-02-21 12:50:00,21.5,17.4,30.37,SW,225,1.0,3.0,84,0.00,,,0.00,Wunderground v.1.15,2013-02-21 18:50:00,
2013-02-21 12:55:00,21.4,17.3,30.37,WSW,240,0.0,3.0,84,0.00,,,0.00,Wunderground v.1.15,2013-02-21 18:55:00,
2013-02-21 13:00:00,21.5,17.4,30.36,SSW,212,0.0,1.0,84,0.00,,,0.00,Wunderground v.1.15,2013-02-21 19:00:00,
2013-02-21 13:05:00,21.7,17.9,30.36,South,176,0.0,3.0,85,0.00,,,0.00,Wunderground v.1.15,2013-02-21 19:05:00,
2013-02-21 13:10:00,21.7,17.6,30.35,WSW,254,1.0,1.0,84,0.00,,,0.00,Wunderground v.1.15,2013-02-21 19:10:00,
2013-02-21 13:15:00,21.7,17.6,30.34,South,181,1.0,5.0,84,0.00,,,0.00,Wunderground v.1.15,2013-02-21 19:15:00,
2013-02-21 13:20:00,21.6,17.8,30.34,SSW,209,2.0,3.0,85,0.00,,,0.00,Wunderground v.1.15,2013-02-21 19:20:00,
2013-02-21 13:25:00,21.6,18.1,30.34,SW,226,2.0,4.0,86,0.00,,,0.00,Wunderground v.1.15,2013-02-21 19:25:00,
2013-02-21 13:30:00,21.6,18.1,30.33,SSW,212,1.0,4.0,86,0.00,,,0.00,Wunderground v.1.15,2013-02-21 19:30:00,
2013-02-21 13:35:00,21.7,18.2,30.33,SW,216,1.0,4.0,86,0.00,,,0.00,Wunderground v.1.15,2013-02-21 19:35:00,
2013-02-21 13:40:00,21.7,18.2,30.33,SSW,210,1.0,2.0,86,0.00,,,0.00,Wunderground v.1.15,2013-02-21 19:40:00,
2013-02-21 13:45:00,21.8,18.3,30.33,SSW,204,2.0,5.0,86,0.00,,,0.00,Wunderground v.1.15,2013-02-21 19:45:00,
2013-02-21 13:50:00,21.9,18.1,30.33,SSW,213,3.0,3.0,85,0.00,,,0.00,Wunderground v.1.15,2013-02-21 19:50:00,
2013-02-21 13:55:00,22.0,18.2,30.32,SSW,197,2.0,4.0,85,0.00,,,0.00,Wunderground v.1.15,2013-02-21 19:55:00,
2013-02-21 14:00:00,22.0,18.2,30.33,SSW,193,1.0,1.0,85,0.00,,,0.00,Wunderground v.1.15,2013-02-21 20:00:00,
2013-02-21 14:06:00,22.0,18.2,30.33,SSW,194,2.0,3.0,85,0.00,,,0.00,Wunderground v.1.15,2013-02-21 20:06:00,
2013-02-21 14:11:00,22.1,18.6,30.33,SSW,211,1.0,2.0,86,0.00,,,0.00,Wunderground v.1.15,2013-02-21 20:11:00,
2013-02-21 14:16:00,22.2,18.7,30.33,SSE,161,1.0,4.0,86,0.00,,,0.00,Wunderground v.1.15,2013-02-21 20:16:00,
2013-02-21 14:21:00,22.2,18.7,30.32,West,261,1.0,3.0,86,0.00,,,0.00,Wunderground v.1.15,2013-02-21 20:21:00,
2013-02-21 14:26:00,22.2,18.7,30.32,SSW,205,3.0,4.0,86,0.00,,,0.00,Wunderground v.1.15,2013-02-21 20:26:00,
2013-02-21 14:31:00,22.3,18.7,30.32,South,189,0.0,2.0,86,0.00,,,0.00,Wunderground v.1.15,2013-02-21 20:31:00,
2013-02-21 14:36:00,22.4,19.1,30.32,South,187,0.0,2.0,87,0.00,,,0.00,Wunderground v.1.15,2013-02-21 20:36:00,
2013-02-21 14:41:00,22.5,18.9,30.33,SSW,192,1.0,3.0,86,0.00,,,0.00,Wunderground v.1.15,2013-02-21 20:41:00,
2013-02-21 14:46:00,22.5,18.9,30.33,SSW,212,0.0,3.0,86,0.00,,,0.00,Wunderground v.1.15,2013-02-21 20:46:00,
2013-02-21 14:51:00,22.6,19.0,30.32,WSW,242,2.0,4.0,86,0.00,,,0.00,Wunderground v.1.15,2013-02-21 20:51:00,
2013-02-21 14:56:00,22.6,19.0,30.32,SSW,211,0.0,4.0,86,0.00,,,0.00,Wunderground v.1.15,2013-02-21 20:56:00,
2013-02-21 15:01:00,22.6,19.3,30.32,SW,216,1.0,3.0,87,0.00,,,0.00,Wunderground v.1.15,2013-02-21 21:01:00,
2013-02-21 15:06:00,22.7,19.4,30.33,SSW,203,2.0,3.0,87,0.00,,,0.00,Wunderground v.1.15,2013-02-21 21:06:00,
2013-02-21 15:11:00,22.7,19.1,30.33,SW,224,1.0,4.0,86,0.00,,,0.00,Wunderground v.1.15,2013-02-21 21:11:00,
2013-02-21 15:16:00,22.7,19.4,30.32,South,174,1.0,5.0,87,0.00,,,0.00,Wunderground v.1.15,2013-02-21 21:16:00,
2013-02-21 15:21:00,22.7,19.4,30.32,SW,227,2.0,3.0,87,0.00,,,0.00,Wunderground v.1.15,2013-02-21 21:21:00,
2013-02-21 15:26:00,22.7,19.4,30.31,SW,220,2.0,4.0,87,0.00,,,0.00,Wunderground v.1.15,2013-02-21 21:26:00,
2013-02-21 15:31:00,22.8,19.5,30.31,SSW,207,3.0,4.0,87,0.00,,,0.00,Wunderground v.1.15,2013-02-21 21:31:00,
2013-02-21 15:36:00,22.7,19.4,30.31,South,186,2.0,5.0,87,0.00,,,0.00,Wunderground v.1.15,2013-02-21 21:36:00,
2013-02-21 15:41:00,22.6,19.6,30.31,South,187,1.0,3.0,88,0.00,,,0.00,Wunderground v.1.15,2013-02-21 21:41:00,
2013-02-21 15:46:00,22.7,19.7,30.31,SSW,206,0.0,5.0,88,0.00,,,0.00,Wunderground v.1.15,2013-02-21 21:46:00,
2013-02-21 15:51:00,22.6,19.6,30.31,SSW,198,3.0,4.0,88,0.00,,,0.00,Wunderground v.1.15,2013-02-21 21:51:00,
2013-02-21 15:56:00,22.5,19.5,30.30,SSW,197,1.0,5.0,88,0.00,,,0.00,Wunderground v.1.15,2013-02-21 21:56:00,
2013-02-21 16:01:00,22.5,19.7,30.30,SSW,210,5.0,5.0,89,0.00,,,0.00,Wunderground v.1.15,2013-02-21 22:01:00,
2013-02-21 16:06:00,22.5,19.7,30.30,South,187,1.0,5.0,89,0.00,,,0.00,Wunderground v.1.15,2013-02-21 22:06:00,
2013-02-21 16:12:00,22.5,19.7,30.29,South,180,2.0,3.0,89,0.00,,,0.00,Wunderground v.1.15,2013-02-21 22:12:00,
2013-02-21 16:17:00,22.5,19.7,30.29,SW,219,2.0,4.0,89,0.00,,,0.00,Wunderground v.1.15,2013-02-21 22:17:00,
2013-02-21 16:22:00,22.5,19.7,30.29,West,279,2.0,3.0,89,0.00,,,0.00,Wunderground v.1.15,2013-02-21 22:22:00,
2013-02-21 16:27:00,22.5,20.0,30.29,SW,228,0.0,5.0,90,0.00,,,0.00,Wunderground v.1.15,2013-02-21 22:27:00,
2013-02-21 16:32:00,22.5,20.0,30.29,South,174,1.0,3.0,90,0.00,,,0.00,Wunderground v.1.15,2013-02-21 22:32:00,
2013-02-21 16:37:00,22.5,20.0,30.29,SW,220,2.0,5.0,90,0.00,,,0.00,Wunderground v.1.15,2013-02-21 22:37:00,
2013-02-21 16:42:00,22.5,20.3,30.29,SSW,203,1.0,2.0,91,0.00,,,0.00,Wunderground v.1.15,2013-02-21 22:42:00,
2013-02-21 16:47:00,22.5,20.3,30.28,WSW,257,1.0,5.0,91,0.00,,,0.00,Wunderground v.1.15,2013-02-21 22:47:00,
2013-02-21 16:52:00,22.5,20.3,30.28,South,185,2.0,3.0,91,0.00,,,0.00,Wunderground v.1.15,2013-02-21 22:52:00,
2013-02-21 16:57:00,22.5,20.3,30.28,WSW,239,3.0,4.0,91,0.00,,,0.00,Wunderground v.1.15,2013-02-21 22:57:00,
2013-02-21 17:02:00,22.5,20.3,30.27,SW,214,1.0,4.0,91,0.00,,,0.00,Wunderground v.1.15,2013-02-21 23:02:00,
2013-02-21 17:07:00,22.5,20.5,30.26,SSW,208,2.0,5.0,92,0.00,,,0.00,Wunderground v.1.15,2013-02-21 23:07:00,
2013-02-21 17:12:00,22.5,20.5,30.26,South,182,4.0,4.0,92,0.00,,,0.00,Wunderground v.1.15,2013-02-21 23:12:00,
2013-02-21 17:17:00,22.6,20.6,30.25,SSW,207,2.0,5.0,92,0.00,,,0.00,Wunderground v.1.15,2013-02-21 23:17:00,
2013-02-21 17:22:00,22.6,20.6,30.25,SW,219,4.0,5.0,92,0.00,,,0.00,Wunderground v.1.15,2013-02-21 23:22:00,
2013-02-21 17:27:00,22.7,20.7,30.25,SSW,193,3.0,5.0,92,0.00,,,0.00,Wunderground v.1.15,2013-02-21 23:27:00,
2013-02-21 17:32:00,22.8,21.1,30.25,West,263,1.0,3.0,93,0.00,,,0.00,Wunderground v.1.15,2013-02-21 23:32:00,
2013-02-21 17:37:00,23.0,21.3,30.25,South,187,3.0,5.0,93,0.00,,,0.00,Wunderground v.1.15,2013-02-21 23:37:00,
2013-02-21 17:42:00,23.0,21.3,30.24,South,183,2.0,5.0,93,0.00,,,0.00,Wunderground v.1.15,2013-02-21 23:42:00,
2013-02-21 17:47:00,23.1,21.4,30.24,SSW,207,1.0,6.0,93,0.00,,,0.00,Wunderground v.1.15,2013-02-21 23:47:00,
2013-02-21 17:52:00,23.1,21.4,30.24,SSW,213,1.0,3.0,93,0.00,,,0.00,Wunderground v.1.15,2013-02-21 23:52:00,
2013-02-21 17:57:00,23.2,21.5,30.24,South,178,3.0,3.0,93,0.00,,,0.00,Wunderground v.1.15,2013-02-21 23:57:00,
2013-02-21 18:02:00,23.3,21.6,30.25,SW,235,0.0,2.0,93,0.00,,,0.00,Wunderground v.1.15,2013-02-22 00:02:00,
2013-02-21 18:07:00,23.4,21.7,30.24,SSW,200,2.0,4.0,93,0.00,,,0.00,Wunderground v.1.15,2013-02-22 00:07:00,
2013-02-21 18:12:00,23.5,21.8,30.24,South,188,2.0,4.0,93,0.00,,,0.00,Wunderground v.1.15,2013-02-22 00:12:00,
2013-02-21 18:17:00,23.6,21.9,30.24,SSW,213,3.0,4.0,93,0.00,,,0.00,Wunderground v.1.15,2013-02-22 00:17:00,
2013-02-21 18:22:00,23.7,22.0,30.24,SSW,210,2.0,5.0,93,0.00,,,0.00,Wunderground v.1.15,2013-02-22 00:22:00,
2013-02-21 18:28:00,23.7,22.0,30.23,South,174,2.0,5.0,93,0.00,,,0.00,Wunderground v.1.15,2013-02-22 00:28:00,
2013-02-21 18:33:00,23.8,22.1,30.23,SSW,213,2.0,4.0,93,0.00,,,0.00,Wunderground v.1.15,2013-02-22 00:33:00,
2013-02-21 18:38:00,23.9,22.2,30.22,WSW,251,1.0,4.0,93,0.00,,,0.00,Wunderground v.1.15,2013-02-22 00:38:00,
2013-02-21 18:43:00,24.0,22.3,30.21,SSW,206,2.0,4.0,93,0.00,,,0.00,Wunderground v.1.15,2013-02-22 00:43:00,
2013-02-21 18:48:00,24.1,22.4,30.21,SSW,206,2.0,6.0,93,0.00,,,0.00,Wunderground v.1.15,2013-02-22 00:48:00,
2013-02-21 18:53:00,24.3,22.8,30.21,SSW,210,0.0,4.0,94,0.00,,,0.00,Wunderground v.1.15,2013-02-22 00:53:00,
2013-02-21 18:58:00,24.4,22.9,30.22,SSW,201,1.0,4.0,94,0.00,,,0.00,Wunderground v.1.15,2013-02-22 00:58:00,
2013-02-21 19:03:00,24.6,23.1,30.22,West,259,2.0,4.0,94,0.00,,,0.00,Wunderground v.1.15,2013-02-22 01:03:00,
2013-02-21 19:08:00,24.9,23.4,30.22,SW,214,0.0,7.0,94,0.00,,,0.00,Wunderground v.1.15,2013-02-22 01:08:00,
2013-02-21 19:13:00,25.3,23.8,30.22,WSW,255,2.0,4.0,94,0.00,,,0.00,Wunderground v.1.15,2013-02-22 01:13:00,
2013-02-21 19:18:00,25.6,24.1,30.21,SW,222,2.0,5.0,94,0.00,,,0.00,Wunderground v.1.15,2013-02-22 01:18:00,
2013-02-21 19:23:00,25.7,24.0,30.20,WSW,249,4.0,5.0,93,0.00,,,0.00,Wunderground v.1.15,2013-02-22 01:23:00,
2013-02-21 19:28:00,25.8,23.8,30.20,WSW,247,3.0,11.0,92,0.00,,,0.00,Wunderground v.1.15,2013-02-22 01:28:00,
2013-02-21 19:33:00,25.9,23.6,30.19,SW,216,4.0,6.0,91,0.00,,,0.00,Wunderground v.1.15,2013-02-22 01:33:00,
2013-02-21 19:38:00,26.0,23.5,30.19,SW,218,2.0,6.0,90,0.00,,,0.00,Wunderground v.1.15,2013-02-22 01:38:00,
2013-02-21 19:43:00,26.0,23.2,30.18,SSW,193,3.0,7.0,89,0.00,,,0.00,Wunderground v.1.15,2013-02-22 01:43:00,
2013-02-21 19:48:00,25.9,23.1,30.17,SW,229,2.0,7.0,89,0.00,,,0.00,Wunderground v.1.15,2013-02-22 01:48:00,
2013-02-21 19:53:00,25.8,23.0,30.16,South,177,5.0,5.0,89,0.00,,,0.00,Wunderground v.1.15,2013-02-22 01:53:00,
2013-02-21 19:58:00,25.8,23.0,30.16,South,174,0.0,8.0,89,0.00,,,0.00,Wunderground v.1.15,2013-02-22 01:58:00,
2013-02-21 20:03:00,25.8,23.0,30.16,WSW,249,3.0,5.0,89,0.00,,,0.00,Wunderground v.1.15,2013-02-22 02:03:00,
2013-02-21 20:08:00,25.6,22.8,30.16,SW,220,2.0,6.0,89,0.00,,,0.00,Wunderground v.1.15,2013-02-22 02:08:00,
2013-02-21 20:13:00,25.4,22.6,30.15,SW,218,2.0,4.0,89,0.00,,,0.00,Wunderground v.1.15,2013-02-22 02:13:00,
2013-02-21 20:18:00,25.5,23.0,30.15,SSW,195,3.0,9.0,90,0.00,,,0.00,Wunderground v.1.15,2013-02-22 02:18:00,
2013-02-21 20:23:00,25.5,22.7,30.15,SSW,207,3.0,6.0,89,0.00,,,0.00,Wunderground v.1.15,2013-02-22 02:23:00,
2013-02-21 20:28:00,25.6,23.1,30.16,South,186,2.0,6.0,90,0.00,,,0.00,Wunderground v.1.15,2013-02-22 02:28:00,
2013-02-21 20:33:00,25.6,22.8,30.16,SW,230,1.0,5.0,89,0.00,,,0.00,Wunderground v.1.15,2013-02-22 02:33:00,
2013-02-21 20:38:00,25.6,22.8,30.16,West,268,2.0,5.0,89,0.00,,,0.00,Wunderground v.1.15,2013-02-22 02:38:00,
2013-02-21 20:43:00,25.6,22.8,30.16,West,264,2.0,4.0,89,0.00,,,0.00,Wunderground v.1.15,2013-02-22 02:43:00,
2013-02-21 20:48:00,25.6,22.8,30.16,SW,232,1.0,5.0,89,0.00,,,0.00,Wunderground v.1.15,2013-02-22 02:48:00,
2013-02-21 20:53:00,25.6,22.8,30.16,SW,224,0.0,4.0,89,0.00,,,0.00,Wunderground v.1.15,2013-02-22 02:53:00,
2013-02-21 20:58:00,25.6,22.8,30.16,WSW,256,2.0,4.0,89,0.00,,,0.00,Wunderground v.1.15,2013-02-22 02:58:00,
2013-02-21 21:03:00,25.6,22.8,30.16,SSW,213,1.0,7.0,89,0.00,,,0.00,Wunderground v.1.15,2013-02-22 03:03:00,
2013-02-21 21:08:00,25.6,22.8,30.15,SW,232,1.0,7.0,89,0.00,,,0.00,Wunderground v.1.15,2013-02-22 03:08:00,
2013-02-21 21:13:00,25.6,22.8,30.15,SW,216,5.0,6.0,89,0.00,,,0.00,Wunderground v.1.15,2013-02-22 03:13:00,
2013-02-21 21:18:00,25.6,22.8,30.14,South,179,2.0,6.0,89,0.00,,,0.00,Wunderground v.1.15,2013-02-22 03:18:00,
2013-02-21 21:23:00,25.7,22.9,30.13,SW,220,2.0,5.0,89,0.00,,,0.00,Wunderground v.1.15,2013-02-22 03:23:00,
2013-02-21 21:28:00,25.7,22.9,30.13,South,189,2.0,7.0,89,0.00,,,0.00,Wunderground v.1.15,2013-02-22 03:28:00,
2013-02-21 21:33:00,25.7,22.9,30.13,SW,217,2.0,5.0,89,0.00,,,0.00,Wunderground v.1.15,2013-02-22 03:33:00,
2013-02-21 21:38:00,25.7,22.9,30.12,West,267,2.0,6.0,89,0.00,,,0.00,Wunderground v.1.15,2013-02-22 03:38:00,
2013-02-21 21:43:00,25.8,23.0,30.12,West,268,3.0,7.0,89,0.00,,,0.00,Wunderground v.1.15,2013-02-22 03:43:00,
2013-02-21 21:48:00,25.8,23.0,30.12,SSW,208,2.0,7.0,89,0.00,,,0.00,Wunderground v.1.15,2013-02-22 03:48:00,
2013-02-21 21:53:00,25.9,22.8,30.12,WSW,258,2.0,6.0,88,0.00,,,0.00,Wunderground v.1.15,2013-02-22 03:53:00,
2013-02-21 21:58:00,25.9,22.8,30.12,WSW,255,2.0,6.0,88,0.00,,,0.00,Wunderground v.1.15,2013-02-22 03:58:00,
2013-02-21 22:03:00,26.0,22.9,30.12,West,272,2.0,6.0,88,0.00,,,0.00,Wunderground v.1.15,2013-02-22 04:03:00,
2013-02-21 22:08:00,26.0,22.7,30.12,West,261,2.0,6.0,87,0.00,,,0.00,Wunderground v.1.15,2013-02-22 04:08:00,
2013-02-21 22:13:00,26.0,22.7,30.12,West,260,3.0,6.0,87,0.00,,,0.00,Wunderground v.1.15,2013-02-22 04:13:00,
2013-02-21 22:19:00,26.0,22.4,30.12,West,259,2.0,6.0,86,0.00,,,0.00,Wunderground v.1.15,2013-02-22 04:19:00,
2013-02-21 22:24:00,26.0,22.4,30.12,West,266,2.0,4.0,86,0.00,,,0.00,Wunderground v.1.15,2013-02-22 04:24:00,
2013-02-21 22:29:00,26.0,22.4,30.12,SSW,210,2.0,5.0,86,0.00,,,0.00,Wunderground v.1.15,2013-02-22 04:29:00,
2013-02-21 22:34:00,26.0,22.4,30.12,WSW,248,4.0,5.0,86,0.00,,,0.00,Wunderground v.1.15,2013-02-22 04:34:00,
2013-02-21 22:39:00,25.9,22.3,30.12,WSW,249,1.0,5.0,86,0.00,,,0.00,Wunderground v.1.15,2013-02-22 04:39:00,
2013-02-21 22:44:00,25.9,22.3,30.12,West,259,1.0,6.0,86,0.00,,,0.00,Wunderground v.1.15,2013-02-22 04:44:00,
2013-02-21 22:49:00,25.8,21.9,30.13,SW,217,3.0,7.0,85,0.00,,,0.00,Wunderground v.1.15,2013-02-22 04:49:00,
2013-02-21 22:54:00,25.8,22.2,30.12,West,262,4.0,9.0,86,0.00,,,0.00,Wunderground v.1.15,2013-02-22 04:54:00,
2013-02-21 22:59:00,25.7,22.1,30.12,North,3,2.0,9.0,86,0.00,,,0.00,Wunderground v.1.15,2013-02-22 04:59:00,
2013-02-21 23:00:00,25.7,22.1,30.13,North,359,2.0,4.0,86,0.00,,,0.00,Wunderground v.1.15,2013-02-22 05:00:00,
2013-02-21 23:05:00,25.6,22.3,30.12,SW,223,1.0,5.0,87,0.00,,,0.00,Wunderground v.1.15,2013-02-22 05:05:00,
2013-02-21 23:10:00,25.5,22.4,30.12,WSW,241,1.0,4.0,88,0.00,,,0.00,Wunderground v.1.15,2013-02-22 05:10:00,
2013-02-21 23:15:00,25.3,22.5,30.12,WSW,248,1.0,4.0,89,0.00,,,0.00,Wunderground v.1.15,2013-02-22 05:15:00,
2013-02-21 23:20:00,25.1,22.6,30.12,WSW,257,3.0,4.0,90,0.00,,,0.00,Wunderground v.1.15,2013-02-22 05:20:00,
2013-02-21 23:25:00,24.9,22.6,30.11,West,265,0.0,4.0,91,0.00,,,0.00,Wunderground v.1.15,2013-02-22 05:25:00,
2013-02-21 23:30:00,24.9,22.6,30.10,WSW,238,1.0,2.0,91,0.00,,,0.00,Wunderground v.1.15,2013-02-22 05:30:00,
2013-02-21 23:35:00,24.8,22.5,30.10,SSW,197,0.0,3.0,91,0.00,,,0.00,Wunderground v.1.15,2013-02-22 05:35:00,
2013-02-21 23:40:00,24.8,22.5,30.10,West,269,0.0,3.0,91,0.00,,,0.00,Wunderground v.1.15,2013-02-22 05:40:00,
2013-02-21 23:45:00,24.8,22.5,30.10,WSW,248,0.0,3.0,91,0.00,,,0.00,Wunderground v.1.15,2013-02-22 05:45:00,
2013-02-21 23:50:00,24.8,22.8,30.10,West,264,1.0,1.0,92,0.00,,,0.00,Wunderground v.1.15,2013-02-22 05:50:00,
2013-02-21 23:55:00,24.8,22.5,30.10,SW,234,0.0,3.0,91,0.00,,,0.00,Wunderground v.1.15,2013-02-22 05:55:00,